Location: Newark
(35.2672°N, 80.7344°W)
Time: 11:51:51
(UTC+00:00)

Vanguard 1 - Pass Details

Date: 30 January 2020
Orbit: 650 x 3833 km, 34.2° (Epoch: 19 February)

Event Time Altitude Azimuth Distance (km) Brightness Sun altitude
Rises 01:35:49 0° 275° (W) 3,053 13.7 -34.4°
Reaches altitude 10° 01:38:00 10° 266° (W) 2,259 12.7 -34.8°
Enters shadow 01:41:22 33° 227° (SW) 1,443 11.1 -35.5°
